Theta_e
288 289 289 290 289 289 288 288 287 287 288 287 285 286 288 287 283 280 285 287 285 286 289 291 292 293 293 293 294 295 296 296 296 296 295 295 295 295 292 290 291 291 291 293 293 292 292 291 290 289 289 288 288 287 287 287 286 286 286 286 285 285 285 284 284 285 284 284 283 282 282 281 280 280 280 279 279 279 279 279 279 278 278 277 276 276 275
287 288 288 289 287 288 288 287 287 288 287 287 287 287 288 287 286 287 287 287 287 290 291 292 293 295 295 295 297 296 296 296 296 296 295 295 295 295 295 295 294 293 293 293 294 294 294 293 292 291 290 288 288 287 287 287 286 286 286 285 285 285 284 285 285 284 284 282 282 281 280 280 280 280 279 279 279 278 278 278 277 277 277 276 276 275 275
285 287 288 288 287 287 286 287 287 287 287 287 287 287 287 287 286 287 287 286 286 292 294 294 296 296 296 296 295 295 296 296 296 295 293 292 292 292 292 293 294 294 293 293 293 293 294 294 293 293 292 291 290 288 287 287 286 286 285 285 285 285 285 285 285 283 282 281 281 280 280 280 280 279 279 278 278 277 277 277 276 276 276 275 275 275 274
282 287 286 286 286 285 284 285 286 286 285 284 285 285 287 286 284 286 286 284 285 291 294 295 295 295 295 294 295 295 296 294 290 288 288 288 288 289 290 290 291 291 292 293 293 293 294 295 295 294 292 291 289 287 287 287 287 286 285 285 285 285 285 285 284 282 282 281 279 279 279 279 278 278 278 277 277 277 276 275 275 275 274 274 274 274 274
281 286 286 286 286 284 281 282 285 287 287 288 288 289 289 289 289 285 282 284 290 291 289 288 289 290 291 292 293 289 285 286 287 287 286 287 288 289 289 289 289 290 290 291 291 292 294 295 295 296 295 292 289 288 288 288 286 284 284 285 285 285 285 284 283 281 280 280 279 278 278 278 277 277 276 276 276 275 275 275 274 273 274 274 273 274 273
280 284 285 285 281 275 277 288 291 290 287 287 285 286 288 289 290 287 288 286 284 284 284 283 284 284 286 288 286 286 286 285 285 285 286 286 287 288 288 289 289 289 290 290 290 291 291 293 294 295 295 291 290 290 287 284 284 284 284 284 284 284 284 283 282 280 280 279 279 278 277 277 276 276 275 276 276 275 275 274 274 274 274 273 274 273 273
278 282 283 278 273 276 286 289 290 291 291 291 288 288 289 285 278 281 283 283 282 282 284 284 283 283 285 289 286 286 286 286 285 284 285 285 285 287 287 288 288 288 289 289 289 289 290 290 291 292 292 290 289 287 285 284 284 284 283 283 283 283 282 282 281 280 280 279 278 277 277 276 276 275 275 275 275 275 275 274 274 274 273 273 273 273 272
282 280 278 272 273 284 284 288 282 282 282 280 281 282 282 275 278 279 280 280 281 281 282 283 282 282 283 286 286 285 285 286 285 284 284 285 285 285 286 287 288 288 288 288 288 288 288 289 289 289 289 289 286 287 283 284 282 283 282 282 282 282 281 281 280 280 279 278 278 277 276 276 275 275 275 275 275 274 274 274 274 274 273 273 272 272 272
275 278 278 276 283 282 283 279 278 278 275 276 276 274 278 276 278 280 279 280 280 281 281 281 282 281 282 283 283 285 285 285 286 286 285 286 286 286 287 288 288 289 289 289 288 288 288 287 286 284 284 285 285 282 281 280 280 280 281 281 281 281 281 280 280 280 279 278 277 276 276 275 275 275 275 275 274 274 273 273 273 273 272 272 272 271 271
284 276 276 276 276 273 272 274 280 282 280 280 281 279 278 277 279 281 280 278 279 280 280 280 280 281 278 276 279 282 284 286 286 286 286 286 286 287 287 288 288 289 290 290 290 289 288 287 285 282 282 282 282 281 279 278 278 278 279 280 280 280 280 280 279 278 278 278 277 276 275 274 274 275 275 275 274 273 273 272 272 272 271 270 270 270 270
277 275 272 272 272 274 274 275 278 281 281 281 283 280 274 276 278 280 280 279 279 280 278 280 279 278 273 274 278 281 285 286 286 285 285 286 286 287 287 287 287 288 289 289 289 289 289 288 285 280 280 282 282 281 279 278 277 277 279 279 279 279 279 277 277 277 277 276 276 275 274 274 274 274 274 273 273 273 273 272 272 271 270 269 268 269 269
273 273 271 270 275 270 274 276 279 279 280 281 281 273 272 275 278 280 279 279 278 279 280 280 278 276 272 274 278 283 285 286 285 285 285 285 285 286 287 288 288 288 288 288 288 288 288 288 284 280 280 281 280 279 278 277 277 278 278 278 278 276 276 276 275 276 276 276 275 274 273 273 273 273 272 271 270 271 271 271 270 269 268 269 268 267 268
271 273 270 273 274 278 276 276 279 278 281 278 269 264 271 278 279 280 279 278 279 279 278 279 276 279 280 281 283 285 285 284 284 285 286 286 286 286 287 287 288 288 288 288 287 287 288 287 284 281 280 282 282 279 278 279 280 279 278 276 276 275 275 274 274 274 275 275 274 273 273 273 273 271 271 270 270 269 269 269 268 268 268 268 267 267 267
267 267 266 267 272 278 276 278 279 280 275 263 264 275 280 278 279 279 279 278 279 279 279 278 279 280 282 283 283 283 283 283 283 284 284 285 286 287 287 287 287 287 287 287 287 287 288 287 284 281 280 282 283 279 277 279 280 276 275 275 274 274 274 274 273 273 273 273 273 272 272 271 271 270 270 269 269 269 269 268 268 267 267 267 266 266 266
270 268 266 266 263 274 277 277 275 279 269 268 277 279 280 282 279 278 277 278 277 279 278 279 279 280 280 280 281 281 281 281 281 282 283 284 284 285 286 286 287 286 286 286 286 287 287 287 285 283 280 280 281 278 278 280 275 273 273 273 274 274 273 273 272 272 272 272 272 271 271 271 271 269 269 268 268 268 268 268 268 267 266 266 266 266 266
265 266 264 265 273 275 278 276 269 276 277 279 280 279 276 278 277 276 278 277 278 278 278 277 278 279 279 279 280 279 280 280 281 282 283 284 284 285 286 286 286 286 285 286 286 286 287 286 286 283 280 280 281 279 281 276 274 274 273 274 274 273 273 272 271 271 271 271 271 271 271 271 270 269 268 268 268 268 268 267 267 266 266 266 266 266 265
268 265 271 275 277 277 277 277 277 278 281 282 279 278 276 275 275 276 276 276 277 278 278 278 278 277 278 278 278 277 278 279 279 280 281 282 282 283 283 284 285 285 285 284 285 285 286 287 286 284 281 280 280 281 281 276 276 273 274 274 274 273 272 272 271 271 270 270 270 270 270 270 269 268 268 268 267 268 268 268 267 267 266 267 266 266 266
275 276 276 277 275 275 275 277 279 281 281 280 278 277 275 276 276 276 275 276 276 277 278 276 276 276 276 276 276 276 277 277 278 279 279 280 280 281 282 282 282 283 284 284 284 284 284 286 286 285 282 280 280 283 279 276 276 275 274 273 273 272 271 271 271 270 270 270 269 270 270 270 270 269 268 268 268 267 267 268 267 267 267 267 267 267 266
269 263 273 272 273 275 275 275 276 277 278 278 277 275 276 276 276 276 276 276 276 276 276 275 274 274 274 274 274 275 275 275 276 277 277 278 278 278 278 279 280 279 280 279 279 279 279 281 284 285 285 282 281 281 280 277 277 275 274 274 273 272 271 271 270 270 270 269 269 269 269 270 270 269 269 269 268 268 268 268 267 267 267 267 267 267 266
269 268 273 274 275 275 276 276 275 275 276 275 275 275 275 275 275 275 275 275 274 274 273 273 273 273 273 272 272 272 272 273 274 274 275 275 276 276 277 276 277 276 275 275 275 275 276 278 279 281 283 284 284 282 280 277 275 274 274 274 274 273 271 270 269 269 270 269 268 268 269 269 269 268 268 269 269 268 268 268 268 267 267 267 267 267 266
272 273 274 274 275 275 275 275 275 275 275 273 273 274 273 273 272 273 273 273 273 272 271 272 271 270 270 271 270 270 270 271 271 272 273 273 273 273 273 273 274 272 273 273 273 273 273 274 275 278 281 283 284 282 281 276 274 274 274 273 273 272 271 270 269 269 269 268 268 268 268 269 269 269 269 269 269 269 270 270 270 269 268 268 268 269 268
267 268 271 273 266 268 273 274 274 274 273 273 272 273 272 271 271 271 270 271 271 271 271 270 270 268 269 269 269 268 268 269 270 270 270 270 270 271 271 271 271 271 271 271 271 271 271 272 274 276 278 278 279 281 279 276 274 274 274 273 272 271 270 270 269 268 268 268 268 268 268 268 268 268 271 272 271 270 269 272 274 275 274 269 270 269 269
267 273 274 275 275 274 275 276 273 273 273 272 271 271 271 270 269 269 268 267 268 268 269 270 268 267 267 267 267 266 267 268 269 269 268 268 268 268 268 268 268 268 268 269 268 268 269 271 273 273 273 273 274 275 278 277 275 274 274 273 272 271 270 269 269 268 268 267 267 267 268 268 268 267 267 269 273 274 273 273 274 275 275 275 275 274 271
275 276 276 276 273 273 276 275 272 272 272 272 270 270 269 269 269 267 267 267 266 266 267 267 267 266 266 266 266 265 266 267 267 267 267 267 267 266 266 266 266 266 265 265 266 267 269 270 269 269 270 270 271 273 274 276 275 274 274 274 273 272 270 269 269 268 268 268 267 267 267 267 267 266 266 266 268 273 274 274 275 275 276 275 276 276 275
274 276 272 273 273 274 274 272 271 272 271 269 268 267 268 267 268 267 266 266 267 266 265 265 266 266 265 265 265 265 265 265 265 266 266 265 265 264 264 264 263 263 264 265 265 266 266 266 266 267 267 268 270 271 273 274 275 274 274 274 274 274 272 270 268 267 267 267 267 267 266 266 266 266 266 266 266 267 271 275 276 276 276 276 276 276 275
271 269 269 269 267 269 270 270 270 270 267 267 266 266 267 268 268 267 266 266 266 265 265 264 264 264 265 264 264 264 264 263 264 264 263 262 262 262 261 261 262 263 263 263 262 263 263 263 264 265 266 267 269 271 273 274 275 275 275 274 274 274 272 270 268 267 267 267 267 266 267 267 266 266 267 267 267 268 268 269 271 274 277 277 277 276 276
268 268 267 268 269 270 269 268 266 267 266 266 265 265 266 266 267 266 266 265 265 264 264 264 264 264 263 263 262 262 262 262 262 261 260 260 259 260 260 261 261 261 261 261 260 261 262 263 263 264 264 266 268 270 272 273 275 275 275 275 274 274 272 271 269 268 267 267 267 266 266 266 266 266 267 268 268 269 269 269 270 270 271 273 276 277 274
265 265 266 265 267 267 266 266 265 265 265 265 265 265 265 265 264 262 262 262 262 263 263 263 262 261 261 261 260 259 260 259 258 259 259 258 259 260 260 259 259 259 259 259 259 260 261 261 262 263 264 265 268 269 271 273 274 275 275 275 274 274 273 270 269 269 268 267 267 266 266 266 267 267 268 268 268 269 270 271 271 270 270 272 272 276 277
263 263 264 263 264 265 265 264 264 263 264 265 265 264 262 261 260 260 261 262 262 262 261 261 261 261 260 259 259 258 257 257 257 257 258 258 259 259 259 259 258 258 258 258 258 259 260 260 262 263 264 267 269 271 272 272 273 274 274 274 274 273 273 271 269 269 268 267 267 267 268 267 267 267 268 268 269 270 270 270 270 270 270 271 272 273 275
261 262 261 262 262 262 262 261 262 263 262 263 262 261 261 260 259 260 260 261 261 260 260 260 259 258 258 257 257 257 256 256 257 257 258 258 258 258 258 258 258 258 258 258 259 260 262 263 264 264 265 267 268 269 270 271 272 273 274 274 273 273 273 271 269 268 267 267 266 268 267 267 267 267 268 268 269 269 270 270 269 269 269 270 271 270 270
259 259 259 260 260 260 261 261 261 261 261 261 261 260 260 260 259 259 259 260 259 259 258 257 257 256 256 256 256 256 257 257 257 257 257 257 257 258 258 258 256 256 257 258 260 261 262 262 262 262 264 266 267 269 270 272 273 273 273 273 273 274 274 273 271 268 267 266 266 266 266 266 267 267 267 268 268 269 269 269 269 269 269 269 269 269 270
256 256 256 259 260 258 257 259 259 260 260 260 258 258 258 258 257 257 257 257 257 257 256 256 255 255 255 256 256 256 256 256 256 256 256 257 257 257 258 258 258 260 260 260 261 262 261 262 262 263 265 266 267 267 268 268 269 269 271 272 271 271 272 274 269 268 267 266 266 266 266 266 266 267 267 267 268 268 268 268 268 268 268 268 267 268 269
254 255 256 256 255 256 256 258 258 257 258 257 258 258 258 258 257 257 257 257 256 256 255 255 255 255 255 255 255 255 255 256 256 256 256 256 257 257 258 259 259 259 260 260 261 262 262 262 263 264 264 265 266 267 268 268 269 270 270 271 271 270 269 271 269 268 266 265 265 265 265 266 266 266 266 267 267 267 267 267 267 266 266 265 265 265 265
254 254 256 255 255 255 255 255 256 256 257 257 257 257 257 257 256 256 255 255 255 254 254 254 255 255 255 255 255 255 255 255 254 255 255 256 256 257 258 259 259 259 260 261 262 261 261 261 261 261 262 263 264 264 265 266 267 268 269 270 270 269 267 267 267 266 265 264 265 265 266 265 266 266 266 266 266 266 265 265 264 264 263 263 262 262 266
257 257 257 257 257 257 257 256 255 255 255 255 255 255 255 255 255 255 255 255 254 254 255 255 255 255 255 255 255 255 255 255 255 256 256 257 257 258 258 258 259 259 259 259 260 260 261 261 261 260 260 261 262 263 264 265 266 267 268 269 268 267 266 266 266 265 264 264 265 264 265 265 265 266 265 265 265 264 264 264 263 262 261 260 261 264 266
255 254 254 255 254 254 254 254 255 255 254 254 254 254 254 254 254 254 253 254 255 255 255 255 255 255 255 255 255 255 256 256 256 256 257 257 257 258 258 258 258 257 257 257 259 260 261 259 260 261 260 260 260 261 263 264 266 267 267 267 266 265 265 264 264 264 264 264 264 264 264 264 264 264 264 264 264 264 263 262 261 260 260 260 262 264 264
254 254 254 254 254 254 253 254 254 254 254 253 253 253 253 253 253 253 254 254 254 255 255 255 255 255 255 256 256 257 257 257 257 257 257 257 257 257 257 257 257 256 257 256 258 259 258 257 260 261 261 260 261 262 263 265 265 266 265 265 264 264 263 263 263 263 262 263 263 263 262 263 263 263 262 263 262 262 261 260 259 259 260 261 260 259 257
253 254 253 253 253 253 253 253 253 253 253 252 252 253 253 253 253 253 253 254 254 255 256 256 256 256 256 257 257 256 257 257 257 257 257 257 257 256 256 256 256 256 255 256 257 257 257 259 261 260 260 260 261 262 263 265 265 264 264 263 263 263 262 262 261 261 261 262 261 262 262 262 261 261 261 261 261 260 259 259 259 259 258 257 257 256 255
253 253 253 253 253 252 252 252 252 252 252 251 251 252 252 253 253 254 254 255 256 256 256 256 257 257 256 256 256 256 256 256 256 256 256 256 256 255 255 255 256 256 255 256 256 257 258 259 259 259 259 260 261 261 262 263 263 263 262 262 262 262 261 261 261 260 260 260 260 260 261 260 260 260 259 259 259 258 258 258 258 257 257 257 255 254 253
252 252 252 252 252 252 252 252 252 251 252 252 251 251 252 253 253 254 255 255 256 257 257 257 256 256 256 256 255 255 255 255 255 255 255 255 255 254 255 255 256 256 256 259 257 257 259 261 259 258 259 259 260 260 261 261 262 261 261 261 261 260 260 260 259 259 259 259 259 259 259 259 258 258 258 257 257 257 257 256 256 256 256 255 254 253 252
252 252 252 252 252 252 251 251 251 251 251 251 252 252 253 254 255 255 255 256 257 258 257 257 256 256 256 256 255 255 255 255 255 255 255 254 253 254 253 252 255 256 257 257 258 258 258 259 258 258 258 259 259 260 260 261 260 260 260 259 259 259 258 258 258 258 258 258 258 258 257 257 257 256 256 257 256 256 256 257 256 256 256 254 252 252 251
252 252 252 251 251 251 251 251 251 251 251 252 253 254 255 256 256 256 256 257 257 257 257 257 258 256 256 255 255 254 254 254 255 255 255 254 253 253 252 253 256 256 258 258 258 258 257 257 257 258 258 258 258 260 260 259 258 258 258 258 258 258 258 258 257 257 258 258 257 257 257 257 256 256 256 256 256 256 256 255 255 255 253 252 252 251 251
251 251 250 251 251 250 250 250 251 251 251 252 254 254 256 256 257 257 257 257 257 256 256 257 256 256 255 254 254 253 253 254 254 254 254 254 255 255 254 254 256 256 259 257 257 256 256 257 257 257 259 258 258 260 259 258 258 257 257 257 257 257 257 257 257 257 257 257 256 256 256 256 256 255 255 255 255 255 254 254 253 253 252 252 252 251 251
251 251 251 250 250 251 251 251 251 252 251 253 255 255 256 256 257 257 256 256 256 256 256 255 255 254 254 254 253 253 253 253 253 253 253 253 254 255 255 255 256 257 258 257 256 256 256 257 257 258 259 259 259 259 257 257 257 257 256 256 256 256 256 256 256 256 256 256 256 256 256 255 255 255 255 254 254 254 253 253 253 253 252 252 251 251 251
251 251 250 250 250 250 250 251 251 251 253 254 255 255 256 256 257 257 256 256 256 256 256 255 255 254 254 254 253 253 253 254 254 253 252 251 251 252 255 257 256 256 257 258 256 256 257 257 258 259 259 259 259 259 257 257 257 257 256 256 256 256 256 256 256 256 256 256 256 256 255 255 255 255 255 254 255 254 253 253 252 252 252 251 250 250 250
250 250 250 252 249 249 250 251 252 253 254 254 255 256 256 256 256 256 257 256 255 255 255 255 255 254 254 254 254 254 254 254 254 253 253 253 252 253 255 257 256 257 257 258 256 256 257 259 259 259 259 259 258 257 257 256 256 256 256 256 256 256 255 255 256 256 256 256 256 256 255 255 255 255 255 255 254 254 253 252 252 252 251 251 251 251 251
249 249 249 249 250 250 251 252 253 253 254 254 254 254 255 256 256 256 256 256 256 255 255 255 255 255 255 255 253 253 252 252 253 254 254 254 255 255 256 257 257 257 257 256 256 256 257 257 258 259 259 258 258 256 256 255 255 255 255 255 255 255 255 256 255 255 255 255 255 255 256 255 254 254 254 254 253 253 252 252 251 251 251 251 250 250 250
249 249 249 249 250 251 252 252 253 253 254 254 254 255 255 256 256 256 256 256 256 256 256 255 255 255 255 255 255 254 254 252 251 251 254 254 254 254 255 255 255 257 256 256 256 257 258 258 258 258 258 257 256 255 255 255 255 254 254 254 254 254 254 254 255 254 254 254 254 254 253 254 254 254 253 253 253 253 253 252 251 250 251 251 250 250 250
249 249 250 250 251 251 252 253 254 254 254 255 255 255 255 255 255 255 255 255 255 255 255 255 255 255 255 255 255 254 255 255 253 251 253 254 254 254 254 255 257 257 255 254 254 255 256 257 257 257 257 256 254 254 254 254 254 254 254 254 254 254 254 254 254 254 254 253 253 253 253 253 253 253 252 252 251 252 251 251 251 251 250 250 249 249 249
250 250 250 251 252 252 253 254 253 253 254 255 254 255 255 255 254 254 255 255 255 255 255 255 255 255 254 254 254 254 254 254 255 255 255 254 254 254 254 254 254 256 256 254 253 253 255 256 256 256 254 253 253 253 253 253 253 253 253 253 253 253 253 253 255 254 253 253 253 252 252 252 252 251 251 251 251 251 251 251 251 250 250 250 249 249 248
250 251 251 252 253 254 255 254 254 254 254 254 255 255 255 254 254 254 254 255 254 254 254 254 254 254 254 254 254 254 254 254 255 256 254 254 254 255 255 254 254 254 254 253 253 252 252 252 253 253 253 253 252 252 253 252 252 253 253 253 253 253 253 253 252 252 252 252 252 251 251 251 251 251 250 250 251 250 250 250 250 249 249 249 249 248 247
251 252 253 254 254 254 254 255 255 255 255 255 255 255 254 254 254 254 254 256 254 253 254 253 253 254 255 254 254 254 254 254 254 254 255 254 254 253 254 255 253 253 252 252 252 252 252 253 254 254 254 253 252 252 253 253 252 252 252 252 252 252 252 252 251 251 251 251 251 251 251 251 251 250 251 251 250 250 250 249 249 248 248 247 246 246 246
Wind_Speed
19 21 21 22 21 19 19 20 20 21 19 18 20 22 22 19 18 23 16 15 18 16 16 19 23 23 23 21 21 22 22 20 18 17 17 16 17 16 8 7 9 9 10 10 11 11 12 12 12 14 13 13 13 12 13 13 11 14 13 12 14 14 14 15 17 17 16 13 11 11 11 12 12 13 14 13 12 12 13 13 12 13 13 14 13 12 10
15 16 20 21 22 20 20 20 20 21 22 23 24 25 24 26 27 25 23 23 27 22 20 20 22 21 20 21 21 21 22 24 23 22 20 16 17 15 13 12 10 8 10 12 12 13 13 13 14 14 13 12 12 14 15 14 12 14 11 14 14 14 15 18 17 15 12 10 11 11 11 13 14 13 13 13 13 13 13 13 12 12 12 12 13 14 14
16 18 20 18 21 23 23 21 21 22 23 25 26 24 23 23 25 26 29 28 28 20 22 24 23 22 21 22 25 26 24 23 23 20 16 18 19 20 21 20 18 15 12 12 13 13 14 14 14 14 14 14 13 13 13 12 13 13 11 14 14 15 18 18 15 11 11 12 12 14 14 13 11 12 13 12 13 13 12 12 13 12 12 13 12 11 13
14 9 15 17 16 17 21 22 23 24 24 25 22 21 22 22 25 27 27 23 20 19 23 25 25 25 24 24 23 22 18 17 18 18 17 17 16 17 18 18 19 20 21 18 15 14 15 16 16 12 12 12 11 12 13 12 14 9 9 12 14 16 17 12 10 12 12 12 12 13 11 13 13 12 11 11 12 13 12 13 12 11 13 13 12 12 11
12 7 12 16 19 18 20 23 25 29 29 24 23 22 22 23 22 20 17 20 14 17 16 16 17 18 16 14 13 15 18 16 15 15 13 14 15 16 16 18 18 18 18 17 19 19 16 16 16 16 16 13 11 12 12 15 6 7 12 13 14 14 12 11 12 11 11 12 13 12 13 13 12 12 13 13 13 13 14 12 11 13 13 12 12 12 12
13 14 16 11 13 16 10 5 17 22 25 25 26 23 20 19 14 12 9 8 14 18 19 20 18 17 15 11 11 11 13 14 17 17 14 13 14 14 14 15 16 17 17 17 18 18 18 18 18 18 17 12 14 12 9 4 8 12 11 12 12 12 10 10 10 11 11 12 13 12 11 11 12 13 13 15 13 11 11 11 13 12 12 14 13 13 13
15 14 15 18 22 17 4 2 5 7 14 17 19 17 18 12 17 18 18 20 20 16 13 14 17 18 19 8 10 17 16 17 15 17 18 18 17 17 16 17 17 17 16 17 19 20 20 20 18 16 15 10 9 9 5 6 8 9 10 11 11 11 11 10 9 11 12 12 12 12 12 12 13 13 14 12 13 12 13 14 15 15 15 14 13 13 12
11 12 11 17 17 1 1 7 16 11 12 16 16 9 11 13 11 10 12 13 15 15 16 15 15 18 23 3 9 17 19 17 17 17 17 20 18 18 17 17 18 17 16 16 16 17 16 17 18 15 13 12 8 10 5 7 6 8 8 9 9 7 9 10 12 12 12 12 12 12 13 13 14 14 14 14 15 12 11 10 9 9 9 10 13 13 12
15 12 16 22 14 14 8 5 13 12 7 10 6 5 5 16 12 14 12 12 15 15 15 14 16 22 16 6 4 16 20 19 17 15 15 16 17 15 16 15 16 16 15 15 16 15 16 16 16 16 15 12 7 3 1 2 1 3 5 8 8 9 10 10 11 11 12 13 13 13 14 15 15 15 15 14 12 10 12 11 12 11 12 11 10 12 12
9 15 16 15 14 16 5 3 5 2 5 10 10 7 6 12 14 11 14 14 18 17 16 15 17 18 14 15 14 18 22 18 17 19 16 17 17 16 16 16 16 17 16 16 17 15 16 17 14 12 13 11 7 3 1 1 3 4 5 8 6 7 9 9 10 10 11 12 13 14 14 16 16 13 11 9 11 11 14 13 12 11 10 10 9 10 12
8 13 11 8 9 4 3 9 9 9 14 12 8 5 6 8 11 11 14 15 15 14 19 17 18 16 15 15 14 15 18 17 16 18 18 17 18 18 16 15 16 17 17 16 15 15 16 17 16 11 10 7 5 4 2 1 2 5 7 6 6 7 5 4 5 6 7 8 10 11 13 12 11 12 13 12 10 9 9 10 10 9 9 10 9 9 9
9 11 12 10 3 2 9 10 9 11 14 14 2 10 5 12 10 8 13 12 14 9 12 14 13 12 15 18 18 18 16 13 13 15 18 20 19 20 20 18 16 15 14 16 19 18 17 18 14 11 8 5 2 1 2 3 5 7 5 3 3 4 5 7 7 8 8 9 9 10 10 9 9 10 9 10 11 11 10 10 10 10 10 10 12 10 9
9 11 12 9 6 4 8 11 16 18 10 1 5 8 9 9 6 7 9 9 10 9 8 8 10 9 6 13 17 18 16 17 18 14 12 14 15 17 18 18 19 17 16 14 14 15 14 14 14 11 8 9 9 3 1 2 7 4 2 3 4 4 5 6 7 8 7 9 11 9 9 10 10 9 9 11 11 11 11 9 9 10 11 10 10 9 9
6 3 5 7 8 3 10 14 13 12 9 9 7 4 3 5 6 7 4 7 6 10 7 8 7 10 10 11 13 15 16 16 18 18 17 18 18 16 13 15 15 16 17 17 18 18 15 14 13 11 9 11 12 9 5 7 6 1 1 2 4 5 6 6 6 6 6 5 6 8 9 10 11 10 8 9 11 11 10 11 12 12 11 10 10 10 9
5 5 11 11 14 2 18 12 15 5 5 9 6 5 2 2 4 6 5 4 9 5 10 9 10 12 12 11 13 14 15 16 17 18 18 17 18 19 20 20 18 15 16 18 19 17 16 15 13 12 9 11 11 8 9 8 4 1 2 2 3 4 5 7 7 7 7 8 8 7 8 9 11 11 9 10 10 10 11 11 12 12 12 11 11 11 10
10 9 11 7 2 9 8 8 6 6 3 5 1 1 2 3 1 3 3 6 7 7 10 12 13 11 12 13 10 13 14 14 15 15 15 14 15 16 15 15 16 17 17 17 17 18 16 14 13 12 9 11 10 8 11 4 1 2 3 3 4 4 4 5 6 7 8 9 9 9 10 10 10 11 11 10 10 10 11 12 11 12 10 11 11 11 8
2 4 8 10 14 11 10 6 2 6 6 4 5 4 4 4 3 3 4 7 8 7 10 12 12 14 11 11 13 13 14 15 15 16 16 16 16 16 17 17 16 15 16 19 19 19 17 15 12 11 9 9 12 11 7 1 1 2 3 4 4 5 5 5 6 6 6 7 9 9 10 12 12 11 11 12 11 10 11 11 12 12 12 12 13 12 12
9 10 11 12 8 10 12 11 3 4 6 5 4 4 4 4 5 3 5 7 8 9 8 9 11 11 12 14 12 12 14 15 14 14 15 15 15 14 14 15 16 16 17 17 17 19 19 17 15 11 9 7 11 13 4 2 2 2 3 4 4 5 5 6 7 7 8 7 7 9 11 10 11 11 13 13 12 11 12 12 12 13 13 13 12 12 12
6 8 5 5 6 13 13 10 4 4 3 4 5 4 5 6 5 5 5 7 8 8 8 9 10 12 13 12 14 14 14 15 15 15 14 14 14 15 15 15 15 16 16 17 19 20 22 20 16 14 13 9 8 9 9 5 3 4 5 5 5 5 7 7 7 8 10 9 8 8 9 9 9 10 10 11 11 12 12 12 12 12 12 13 13 12 13
9 13 14 13 12 14 14 11 9 7 7 6 5 6 5 6 5 4 6 4 6 5 7 7 8 12 15 14 13 14 14 15 14 14 13 15 14 14 14 15 15 15 16 17 19 20 20 20 17 17 17 15 12 9 7 5 4 4 6 7 8 8 9 8 8 9 10 10 12 11 11 11 11 11 11 13 14 16 17 17 16 15 14 14 15 15 14
9 10 10 15 16 14 15 15 9 9 7 5 6 6 6 5 4 5 4 3 7 6 9 7 8 10 13 12 12 13 15 16 14 13 15 15 16 16 16 14 14 15 16 17 17 19 21 19 19 18 18 15 12 9 8 4 4 6 8 8 8 8 8 8 9 9 9 10 10 12 11 11 10 11 13 14 15 13 13 12 16 18 18 16 15 14 14
11 12 13 5 5 10 10 8 10 8 8 7 6 5 5 3 4 4 6 8 6 8 10 9 8 10 13 14 12 12 14 16 16 15 15 16 17 16 15 13 14 16 15 15 17 19 18 17 16 18 16 16 15 14 8 5 5 8 8 7 8 9 9 9 9 9 9 9 9 10 11 10 10 8 7 11 9 9 9 13 17 14 13 13 13 12 12
12 14 12 8 11 13 12 13 5 10 2 1 4 7 5 4 3 3 4 9 11 10 10 7 8 10 13 16 15 14 15 17 16 15 16 15 14 16 13 15 16 15 16 17 18 21 20 17 15 15 17 17 17 16 14 9 7 9 9 8 9 9 9 10 11 11 10 10 10 10 10 10 9 9 8 8 14 15 11 12 15 17 17 14 16 18 14
17 14 15 9 6 11 15 7 3 2 2 4 6 1 1 4 6 4 5 7 10 12 11 11 8 9 13 16 14 17 18 17 17 18 16 17 16 15 14 11 13 16 17 20 19 20 19 15 15 17 17 19 17 15 15 14 10 11 12 11 11 10 10 10 11 11 10 11 10 10 10 10 10 10 10 9 8 12 13 13 18 17 16 15 19 20 17
14 8 2 2 6 8 6 4 3 4 0 3 2 4 4 6 7 5 8 10 7 9 11 13 13 8 10 15 15 15 17 20 19 17 20 21 20 18 15 16 15 15 17 13 14 17 17 18 19 19 21 20 19 12 15 15 13 13 14 13 14 12 10 10 10 12 11 11 11 11 11 11 11 11 11 11 11 10 10 15 19 18 20 17 18 18 18
2 1 1 2 3 7 6 4 6 1 3 4 6 7 9 8 9 9 10 11 11 7 9 12 14 13 8 11 13 14 17 20 20 18 16 17 20 18 17 17 17 17 15 17 18 16 17 19 21 20 20 21 16 12 16 16 15 14 16 15 16 13 11 12 11 11 12 11 12 12 11 11 11 12 12 12 12 12 11 11 12 14 17 20 21 22 21
6 4 3 6 8 9 2 3 3 5 10 9 6 9 9 8 9 10 11 9 10 11 12 13 11 12 11 9 11 14 16 19 19 18 17 18 18 16 15 15 16 18 20 20 19 20 21 22 21 20 21 22 13 15 17 18 17 16 16 15 13 14 17 12 11 12 11 11 11 11 11 11 11 12 12 11 11 12 13 14 14 13 12 14 20 23 19
6 6 4 3 8 5 4 5 7 10 9 9 8 7 7 8 10 11 14 14 10 8 9 8 9 11 13 11 8 14 15 16 19 19 18 18 16 14 14 15 15 15 18 20 21 20 19 18 18 20 21 20 13 15 18 18 17 16 15 13 13 12 10 13 11 10 10 11 11 11 11 11 11 11 11 11 12 12 12 11 11 11 11 11 12 18 26
5 4 3 1 7 9 9 9 8 8 9 6 6 7 6 9 12 12 14 13 12 12 13 10 6 8 11 13 11 13 16 18 20 21 19 18 16 15 15 15 16 18 18 19 19 18 17 17 18 18 21 14 10 15 15 17 18 15 13 12 11 11 10 10 10 9 9 10 10 11 10 11 11 11 11 11 11 11 11 12 12 12 12 13 13 14 17
6 5 6 7 6 7 8 8 8 9 9 9 9 8 4 7 13 15 15 14 12 14 15 13 13 13 10 12 14 13 16 19 21 19 19 17 16 15 15 16 18 19 18 17 16 14 15 15 15 18 19 13 14 15 16 15 17 17 16 14 13 11 10 9 9 10 9 10 10 12 11 11 11 11 11 12 13 13 13 12 14 14 14 14 14 15 16
7 8 9 8 6 4 6 11 11 11 9 8 7 12 12 7 10 14 16 15 14 14 15 15 16 17 15 13 13 14 15 17 19 20 19 18 17 16 15 14 16 18 18 18 17 15 16 16 18 18 15 13 16 15 16 16 13 12 12 12 10 15 16 14 12 9 9 9 10 11 11 11 11 12 12 12 12 12 12 12 14 14 14 14 14 14 14
9 7 7 2 1 7 10 8 10 11 11 9 10 12 11 11 15 18 18 16 16 14 15 18 18 18 17 16 15 16 16 17 19 20 19 18 17 16 15 15 17 20 21 21 17 15 16 19 20 16 13 14 15 16 16 17 17 16 13 10 10 9 11 15 9 11 9 9 10 10 11 12 11 11 12 12 13 13 13 13 14 13 13 14 13 13 12
7 9 3 4 10 10 10 8 6 12 13 15 14 10 9 9 10 13 14 14 16 17 16 16 16 16 17 18 18 17 17 18 19 19 18 18 16 14 14 14 16 19 20 19 18 17 15 16 17 15 15 17 16 15 14 14 13 12 11 10 9 9 7 10 10 9 8 9 10 11 10 11 11 12 12 13 12 11 12 13 13 12 12 11 11 10 11
2 3 7 5 5 10 14 20 15 13 15 15 14 11 12 11 11 13 13 14 15 17 16 16 17 17 17 17 18 18 18 18 17 15 14 14 16 15 15 15 17 18 18 18 17 15 13 16 17 17 16 16 16 14 14 14 12 11 11 11 10 7 7 7 9 8 8 9 9 10 10 10 11 11 12 11 11 12 12 13 12 12 12 11 9 9 16
6 8 9 10 9 10 12 13 15 16 15 18 21 19 14 12 12 14 15 15 16 16 16 17 17 16 16 17 18 18 17 18 18 19 17 15 16 16 16 17 17 17 18 15 15 16 17 16 12 13 15 15 15 14 13 13 13 12 12 11 8 7 7 8 8 9 9 9 10 10 10 10 9 8 10 11 11 11 11 12 12 13 13 12 10 10 14
6 7 7 8 8 9 11 12 12 14 15 16 17 18 19 17 17 17 17 17 14 16 17 17 16 16 16 16 17 17 18 18 18 17 17 16 15 15 15 17 17 16 16 18 15 14 11 9 15 19 15 12 12 12 12 11 11 10 8 6 6 6 7 7 7 7 8 9 9 10 10 11 12 11 12 11 11 12 12 12 11 11 12 13 13 13 12
4 8 9 10 10 9 11 12 12 13 14 15 16 18 20 19 16 16 15 15 15 15 16 16 16 17 17 17 17 17 16 16 15 15 16 15 14 14 15 16 15 16 15 15 11 8 10 11 16 21 15 9 10 10 10 12 8 6 4 5 6 7 7 8 8 9 8 8 9 10 10 10 10 10 10 11 12 11 12 12 11 11 11 10 8 9 11
7 8 10 10 11 11 12 11 11 13 15 18 16 15 17 18 16 16 15 15 15 15 15 15 14 16 17 16 16 16 16 16 17 17 17 17 15 16 15 13 11 11 12 10 9 9 10 12 18 14 9 8 7 8 8 9 4 2 3 4 5 6 7 7 7 7 8 8 8 10 11 11 11 10 9 9 10 11 10 11 12 12 11 10 9 9 11
9 8 8 10 10 11 13 12 10 10 11 16 17 17 16 16 17 16 16 16 16 14 13 13 14 16 16 16 16 15 16 16 18 21 22 21 17 15 13 11 11 9 8 10 10 9 10 11 10 8 7 7 7 7 5 3 5 4 4 5 6 6 7 7 8 8 8 9 9 10 10 9 10 10 10 10 10 10 10 12 11 11 12 10 12 10 12
10 10 11 11 11 11 12 12 10 10 10 10 13 17 15 15 15 14 13 13 12 12 13 14 14 13 15 15 15 15 16 19 19 20 21 17 14 13 10 8 7 6 10 13 10 8 10 14 9 6 6 6 6 4 5 6 6 5 5 6 6 6 6 7 8 8 8 8 9 9 9 10 9 10 10 10 10 11 11 11 12 11 10 10 9 8 14
11 12 11 10 12 11 11 12 13 11 11 12 12 13 13 14 15 14 11 11 12 13 13 13 14 14 14 14 15 16 17 17 18 19 17 13 11 7 6 7 8 8 9 8 7 8 9 8 6 6 5 5 5 5 5 8 7 6 6 6 6 7 7 8 8 8 9 9 9 9 10 10 10 11 10 11 11 11 11 11 10 9 10 11 11 9 12
12 11 12 12 12 11 11 11 12 13 12 11 13 13 14 14 13 14 14 13 13 13 14 13 13 14 15 15 15 15 16 16 15 14 13 10 7 6 6 7 8 7 12 10 8 7 6 6 6 5 5 5 6 10 10 7 7 7 7 7 7 7 8 8 8 8 7 8 8 9 9 10 11 10 10 11 12 12 12 11 11 10 8 8 10 10 14
11 12 12 12 12 12 11 12 12 14 14 13 12 12 13 13 12 12 12 12 13 12 12 10 11 13 13 13 14 14 12 11 11 11 10 9 8 7 8 8 8 8 12 7 7 5 5 5 5 5 7 7 7 11 11 7 7 7 7 7 8 8 8 8 8 8 8 9 9 9 9 10 10 11 11 11 11 10 8 10 9 8 8 8 9 8 10
11 11 11 11 12 12 12 12 12 12 12 12 12 13 13 11 11 12 12 12 12 12 12 11 11 12 12 12 12 10 9 9 8 8 7 7 7 6 8 7 6 8 12 6 5 5 5 4 4 6 10 11 12 12 8 7 7 7 8 8 8 8 9 9 8 8 8 8 9 9 9 9 10 10 12 12 10 9 11 10 8 8 7 7 7 9 13
11 11 11 12 12 12 11 11 12 12 12 13 13 12 11 10 10 10 11 11 10 11 10 9 9 9 10 10 9 9 8 7 7 7 7 7 8 8 9 9 8 6 8 10 5 6 5 5 8 11 11 13 12 10 7 6 7 8 8 9 9 9 9 9 9 9 9 9 9 9 9 9 10 10 9 10 10 8 9 7 8 10 9 11 10 10 13
11 11 10 11 12 11 12 12 13 12 12 12 12 10 9 9 9 9 9 9 9 9 8 9 8 9 10 10 9 9 8 6 6 6 6 6 6 7 8 9 7 8 11 11 6 6 6 11 13 12 12 12 11 8 7 7 7 8 8 9 9 9 9 9 9 9 9 9 9 10 10 11 9 7 6 6 8 9 8 10 8 6 6 8 9 8 8
11 10 11 11 12 13 13 12 12 12 11 9 9 9 8 9 9 7 8 9 8 8 7 7 8 8 8 9 8 8 8 7 5 6 7 7 7 7 9 11 10 12 10 7 6 6 6 6 9 12 13 14 12 7 7 8 8 8 8 9 9 9 9 9 10 9 9 10 10 11 11 12 10 9 9 9 8 8 9 9 8 11 9 8 7 7 7
11 11 12 13 14 15 13 12 11 9 8 8 8 8 8 8 8 8 7 7 8 7 6 6 6 7 8 8 7 6 6 6 7 8 8 7 7 7 7 7 9 13 12 9 10 10 16 15 14 14 13 12 9 8 8 8 9 9 9 9 10 10 12 14 12 11 11 12 11 8 8 6 6 6 7 11 9 8 8 9 10 9 7 8 7 7 7
10 12 14 13 11 11 11 9 8 7 6 7 7 7 7 8 7 6 6 7 8 6 6 6 7 7 6 7 7 6 6 6 5 4 7 7 6 6 7 8 12 12 8 7 8 8 13 16 15 15 14 11 8 8 8 9 10 9 9 10 10 11 13 13 10 8 13 14 14 12 11 10 10 11 10 9 9 8 8 8 7 7 7 7 6 5 5
10 9 8 8 8 8 8 7 6 6 6 6 6 6 6 6 5 5 6 6 5 6 5 5 5 6 6 6 6 6 6 7 7 7 7 7 7 7 8 8 8 11 11 8 8 8 10 14 14 13 10 8 9 9 9 9 9 9 10 10 11 12 12 11 9 11 12 10 10 9 12 13 11 10 9 9 7 7 6 7 6 6 7 6 6 6 5
9 8 8 7 5 6 7 7 7 7 5 6 5 5 5 5 4 6 5 6 5 6 5 5 5 6 6 6 6 6 6 7 7 8 7 7 7 8 9 8 8 9 9 9 8 7 7 7 8 8 9 9 9 9 9 9 8 8 7 9 9 8 9 11 11 12 11 11 12 10 11 11 10 10 10 8 7 7 7 7 7 6 6 5 5 5 5
10 9 6 5 6 6 6 6 6 6 5 5 5 4 4 4 5 5 5 8 6 5 5 6 6 6 5 5 6 6 6 6 6 6 6 6 7 6 7 9 8 8 8 8 8 8 7 8 9 10 9 8 8 8 9 10 9 9 8 8 6 8 8 8 10 12 11 12 13 12 10 10 9 9 6 6 6 6 6 6 6 5 5 5 6 6 6
Wind_Direction
238 244 250 253 254 250 252 255 257 258 258 253 250 253 256 253 247 259 256 259 261 255 246 252 256 260 263 271 280 280 280 281 278 277 280 278 278 282 282 256 258 255 249 246 249 250 245 241 238 234 232 229 228 231 233 232 214 216 204 198 203 204 207 210 213 211 208 205 201 196 190 187 183 183 182 177 173 172 175 176 175 176 173 171 166 169 170
245 241 241 244 247 253 252 249 250 251 253 254 251 254 253 253 256 258 262 254 255 255 252 244 250 256 266 271 273 276 279 279 283 286 286 291 295 303 305 295 280 260 256 258 257 253 249 243 242 242 237 235 231 227 232 227 218 221 191 203 202 202 205 212 213 208 200 191 191 188 185 187 188 182 177 174 173 173 176 175 171 169 168 170 170 170 168
256 251 248 241 238 241 247 248 248 247 248 251 249 252 256 262 264 263 261 261 261 256 258 258 257 259 264 270 271 273 277 281 287 306 342 3 5 4 358 352 340 325 300 281 275 271 266 262 250 239 234 236 237 231 234 228 220 218 193 208 202 203 210 213 208 190 183 189 182 186 190 184 179 177 177 173 173 173 172 170 169 168 166 168 171 170 169
265 245 252 250 253 248 246 248 247 248 245 247 246 247 240 241 249 252 257 261 263 260 256 258 259 261 262 267 273 280 297 333 13 29 23 16 7 0 356 353 354 353 344 327 304 285 275 268 267 262 257 248 238 234 233 227 226 206 195 208 206 210 214 207 192 187 189 180 181 185 176 182 178 176 168 170 174 173 169 169 170 164 169 171 167 166 167
267 263 259 263 260 257 246 236 236 237 239 239 244 247 249 245 251 259 258 261 293 330 344 349 341 339 333 322 332 15 27 25 24 19 14 10 4 357 353 350 348 350 349 346 337 319 299 289 282 276 267 261 248 237 230 229 202 169 201 206 211 215 210 195 193 184 178 178 182 177 182 175 170 167 171 172 174 172 176 171 158 167 171 165 170 168 169
289 298 293 299 284 245 253 226 230 233 240 242 244 249 254 262 268 296 322 0 25 15 9 7 348 337 330 336 57 64 43 18 5 1 4 359 355 351 348 345 343 341 343 343 339 334 325 308 295 289 289 277 260 247 231 183 172 201 194 206 206 212 201 196 187 182 178 178 180 180 171 167 167 171 173 180 177 171 160 159 169 170 170 172 169 172 175
281 281 281 277 251 267 268 97 21 306 278 279 277 275 274 355 12 10 21 18 23 7 359 2 348 331 322 346 69 47 31 20 2 355 350 352 348 344 342 340 340 337 335 335 338 337 337 329 315 307 303 289 277 290 249 212 200 191 200 200 204 201 193 190 177 179 178 177 176 171 170 169 170 175 177 172 169 171 170 173 174 176 173 174 175 173 173
270 260 258 256 257 328 318 85 29 9 28 11 7 355 57 23 5 13 34 16 11 11 359 356 350 341 321 287 64 40 19 15 6 348 347 342 343 340 338 334 331 331 330 329 328 327 326 330 328 320 307 304 288 264 233 211 201 194 189 194 201 189 190 187 186 183 177 177 173 169 169 171 174 177 177 176 173 170 167 170 172 165 172 172 170 171 170
255 257 259 258 280 270 224 35 7 24 13 328 339 298 77 27 8 10 11 12 11 5 7 352 350 342 327 303 327 21 10 358 355 353 339 335 335 332 329 329 325 322 321 324 325 325 327 330 331 328 322 313 294 296 354 301 201 195 176 194 197 190 193 185 185 181 180 176 174 172 172 173 178 177 175 174 170 162 165 171 170 175 174 171 168 166 167
236 261 267 270 258 249 42 241 268 271 252 251 242 236 220 36 11 358 16 9 9 358 358 355 354 338 350 351 345 355 351 351 345 344 340 333 333 333 328 326 325 325 325 326 327 329 327 327 328 325 326 337 357 33 30 102 157 185 188 205 195 188 195 186 182 177 178 177 175 173 173 180 180 177 170 164 169 168 171 169 173 174 163 159 163 167 168
306 288 284 286 301 7 37 344 311 318 320 298 296 202 187 50 12 356 17 8 6 4 351 354 358 357 349 327 325 341 342 340 343 333 333 332 325 325 325 324 323 323 323 321 320 323 327 328 327 326 320 337 2 5 356 313 217 207 214 208 189 191 180 159 165 166 170 174 175 174 179 179 172 168 170 169 159 158 166 165 166 157 158 160 160 164 167
278 286 282 283 283 90 355 333 337 323 309 289 193 247 176 27 18 349 6 4 4 357 349 352 358 1 331 327 321 328 327 326 327 326 322 326 325 321 322 322 320 316 314 323 328 331 330 324 320 315 310 328 12 326 267 227 210 222 231 205 165 144 146 150 154 156 163 169 171 174 172 163 164 163 152 148 158 164 163 162 157 159 161 162 164 166 160
288 292 280 292 284 107 1 342 345 347 319 54 33 272 316 358 8 10 355 357 345 352 340 345 331 329 299 296 304 309 314 319 319 317 310 307 312 313 315 318 321 321 320 321 318 317 317 317 317 315 315 312 301 272 202 234 258 251 195 148 141 141 135 142 151 160 160 171 167 166 164 161 154 151 159 161 158 162 158 156 151 157 161 161 159 161 162
276 288 292 256 287 183 20 347 4 332 17 14 295 329 37 313 329 347 8 333 330 327 324 308 293 292 296 290 293 303 310 315 313 315 316 314 313 312 306 307 315 318 319 320 321 321 322 323 320 317 319 312 305 319 337 291 289 270 99 122 128 128 139 143 146 150 155 149 153 153 152 150 153 158 157 155 161 158 158 158 161 162 161 161 160 159 163
303 280 282 282 277 341 7 335 350 45 84 265 290 320 199 215 316 310 334 328 315 317 309 306 297 303 304 303 303 306 311 312 313 315 317 316 315 318 322 321 322 324 321 320 320 319 320 322 321 315 319 307 306 321 303 310 1 49 56 79 106 126 136 143 148 150 150 151 153 152 155 159 156 155 153 154 158 160 158 160 162 163 166 166 163 163 166
266 262 248 248 329 321 325 17 284 325 221 258 310 245 230 259 229 284 315 307 295 303 303 309 307 300 304 303 306 308 309 310 311 310 309 311 311 311 311 314 317 323 321 318 317 315 315 316 315 314 316 304 300 309 290 312 90 89 105 104 118 126 139 146 143 149 152 153 152 154 156 156 157 154 160 161 162 167 165 164 165 166 174 172 172 172 161
261 226 275 295 309 319 312 296 274 259 252 165 188 191 229 242 239 222 269 291 295 302 301 302 304 304 301 305 316 315 307 309 309 308 311 313 314 313 314 318 321 321 320 317 315 312 312 316 315 312 312 301 301 297 285 228 178 135 127 134 133 145 149 150 152 150 149 157 160 160 164 161 160 162 163 165 167 174 170 174 174 175 177 178 182 180 175
246 250 253 280 283 281 289 300 268 213 221 194 157 189 226 255 254 252 265 277 294 299 302 305 303 297 304 311 308 303 303 300 300 300 303 306 307 308 311 315 321 322 318 316 316 316 315 318 319 314 304 291 290 289 327 300 216 186 150 143 159 164 157 158 161 153 156 161 166 170 169 173 172 170 168 172 174 175 180 183 181 181 178 182 184 180 184
287 280 247 235 277 283 277 280 258 234 233 187 189 210 229 255 267 268 265 273 281 288 300 293 291 300 302 300 300 304 304 300 301 301 299 300 305 311 312 312 319 320 321 319 316 314 310 311 315 314 309 292 268 282 292 256 220 197 182 173 175 174 173 167 162 166 169 170 169 177 181 179 176 172 175 177 176 178 185 185 188 189 184 182 184 183 182
217 255 267 276 263 257 276 277 275 230 215 186 213 221 226 233 243 256 270 280 286 294 291 283 295 296 300 299 300 305 303 301 299 297 298 301 304 303 304 310 315 315 314 313 310 311 307 307 314 312 306 303 299 290 280 243 212 199 202 195 192 193 185 176 177 181 183 176 177 165 185 186 184 184 186 185 185 188 187 187 184 189 185 188 189 186 181
248 267 271 264 269 278 269 264 245 228 191 194 245 239 237 230 255 271 277 272 283 291 278 289 285 282 281 288 294 298 300 298 296 296 300 301 300 301 305 311 314 309 308 306 304 304 300 302 307 302 298 301 308 297 284 256 209 211 220 210 205 194 186 179 187 188 187 183 189 182 189 194 204 198 189 191 198 204 207 193 190 185 186 192 191 185 176
262 254 258 238 281 279 273 243 213 219 202 192 233 272 270 241 256 274 288 288 281 281 285 289 287 282 289 293 296 292 288 287 289 295 300 303 302 301 304 311 308 304 301 301 302 298 293 297 298 297 304 309 312 314 302 261 226 234 233 219 210 207 195 193 190 182 191 190 189 189 193 194 194 203 214 215 218 213 211 213 217 218 203 195 186 172 174
256 255 252 217 236 261 263 276 196 214 223 315 266 256 258 272 262 263 282 290 296 285 278 274 281 285 287 291 298 295 288 288 292 293 297 297 298 299 307 310 307 307 307 305 302 295 291 294 294 299 299 295 297 298 303 277 238 237 232 226 223 217 201 204 194 189 188 188 190 192 193 190 190 193 195 212 221 224 223 214 216 217 205 201 186 182 175
262 267 273 261 220 250 267 268 134 251 310 266 264 246 251 273 283 280 269 265 275 284 283 282 273 284 291 291 295 292 290 287 292 297 298 295 292 295 297 295 296 301 302 299 295 291 294 298 298 296 291 288 285 290 294 287 252 238 230 226 230 219 210 208 192 191 193 190 184 186 191 188 190 187 190 192 206 216 215 205 203 208 205 195 188 183 183
257 275 331 233 236 261 278 353 331 288 49 91 5 308 293 286 279 275 281 282 259 259 279 284 287 279 280 284 286 288 291 293 291 295 297 296 295 297 298 303 302 300 295 290 288 291 293 295 294 291 287 280 282 286 283 279 267 248 237 232 234 232 214 202 197 193 190 189 188 187 186 185 189 187 188 187 188 188 200 201 196 198 200 194 184 180 170
322 34 44 14 315 273 282 335 290 272 62 15 339 306 298 282 277 282 278 279 282 269 266 275 284 286 268 273 282 286 286 284 290 294 290 290 294 297 297 294 295 296 293 293 290 285 285 287 286 284 282 281 286 289 282 278 270 254 247 239 234 233 216 202 195 195 196 192 188 191 190 189 188 188 191 188 183 177 170 172 186 192 190 188 184 176 170
58 30 22 317 276 266 155 166 299 339 324 321 299 284 278 281 286 285 280 272 272 277 273 273 272 280 284 275 277 277 278 287 290 285 284 283 280 282 286 290 292 292 292 288 284 284 289 288 284 282 279 278 287 290 283 280 272 263 252 247 243 238 227 207 200 201 196 193 192 187 185 187 187 188 189 185 179 180 178 178 177 173 166 172 174 168 164
68 26 47 217 265 302 291 319 319 305 296 288 287 285 296 297 294 293 291 289 281 263 263 267 280 287 289 288 286 287 286 282 282 284 282 278 281 285 285 284 282 277 279 281 283 285 286 280 277 276 273 276 284 279 275 274 271 263 257 249 244 240 228 211 207 201 193 194 189 187 185 185 182 184 181 180 183 185 180 177 168 158 153 156 157 164 160
32 17 22 279 264 275 291 298 295 283 282 283 285 295 299 302 295 289 286 290 297 301 295 295 278 273 281 290 293 288 287 285 284 284 284 285 285 285 285 283 281 278 275 274 274 277 274 269 268 269 270 277 283 281 286 288 284 274 260 251 245 240 231 211 206 197 194 187 187 185 182 176 177 179 181 183 181 179 177 173 164 159 153 148 145 150 153
344 330 305 280 274 285 293 295 292 296 294 296 298 285 268 288 295 294 295 299 305 303 300 303 301 295 292 290 289 285 285 286 286 287 286 285 286 287 287 286 287 283 278 273 271 268 265 265 268 274 280 296 290 276 273 268 268 267 259 250 243 235 230 208 194 196 186 187 184 175 176 176 178 179 179 180 180 179 175 168 164 159 157 159 156 155 152
313 300 279 277 280 279 285 294 296 285 281 283 287 296 298 279 265 282 293 302 303 299 303 305 302 301 301 293 290 287 284 283 284 285 287 288 287 285 284 283 284 287 288 286 285 279 279 282 279 274 283 286 280 284 285 285 285 276 262 253 244 242 234 215 201 188 187 179 176 175 178 175 177 177 179 176 176 177 173 167 163 162 160 158 158 155 151
322 307 280 228 334 316 296 278 277 280 286 293 296 292 296 308 309 305 306 307 303 304 305 305 304 304 302 301 295 291 288 286 285 285 286 288 287 284 280 276 271 273 279 283 284 285 286 282 275 275 278 273 274 275 273 273 273 274 272 265 254 242 233 214 191 188 178 181 175 176 177 173 177 177 175 176 177 173 167 164 163 160 159 158 157 152 146
346 344 7 336 323 308 290 271 255 294 303 303 296 290 291 290 290 290 292 298 301 304 303 298 298 299 300 299 296 293 291 288 285 285 286 285 282 280 279 279 277 279 279 280 282 281 278 280 285 297 295 289 285 279 276 275 273 267 265 254 247 231 215 206 179 178 173 175 179 178 176 174 176 173 179 174 169 163 162 161 157 153 150 150 143 141 135
313 258 279 297 285 295 308 309 309 303 300 295 288 292 299 302 297 293 296 297 295 296 298 300 300 299 296 294 294 293 293 293 292 289 282 281 283 287 283 279 278 278 277 280 283 285 287 286 286 284 283 281 277 271 264 261 258 259 257 253 237 217 184 181 177 166 164 174 175 172 172 173 175 174 172 168 162 159 157 154 149 145 138 135 136 135 147
287 281 280 280 280 276 279 279 290 296 300 301 305 307 303 298 297 295 296 297 297 298 299 298 294 294 294 294 292 291 289 286 287 290 291 290 290 289 287 283 280 279 281 282 286 285 281 283 294 302 302 295 290 284 277 266 261 256 252 240 223 190 178 169 171 167 167 169 164 166 168 168 167 163 158 154 152 150 148 147 147 145 142 141 145 148 144
284 282 277 273 274 272 271 271 274 277 282 285 288 291 296 301 303 301 301 298 299 296 295 293 293 293 292 293 293 294 293 291 289 289 291 293 292 289 288 286 285 285 287 288 283 281 292 304 301 297 296 289 284 280 275 274 265 260 245 214 180 161 161 161 158 149 156 155 161 163 165 160 154 154 153 152 151 152 150 147 143 140 144 148 151 145 136
273 280 284 283 279 276 273 274 276 281 281 282 285 290 291 294 293 292 293 292 293 292 291 292 295 294 292 293 291 290 288 289 292 293 295 294 291 289 289 289 289 288 290 288 294 311 306 296 294 297 297 284 285 285 284 273 263 246 193 167 150 156 151 148 149 149 151 153 153 152 146 147 149 149 151 150 150 146 143 141 137 139 147 146 129 120 122
289 283 285 283 284 282 278 275 278 278 281 280 277 276 282 288 293 293 291 290 289 289 288 285 277 286 293 294 294 293 295 296 296 297 297 297 299 298 294 289 292 295 292 292 315 311 298 295 297 298 296 291 292 295 293 279 244 185 140 139 137 137 138 138 138 141 143 145 145 143 147 147 144 141 139 139 139 139 138 137 140 144 140 127 122 121 129
296 283 276 281 281 280 282 282 274 271 272 278 285 284 283 284 287 289 286 285 286 280 275 280 291 293 294 298 299 300 301 304 307 306 303 299 300 300 291 290 288 295 305 305 296 292 289 291 303 305 300 303 311 313 323 9 71 74 83 103 113 122 128 132 135 133 133 137 139 141 138 138 137 135 136 135 133 131 131 132 132 133 132 129 122 121 132
298 299 295 295 289 289 288 288 286 282 279 274 281 287 292 292 291 287 281 279 280 287 293 294 297 300 304 303 305 307 310 310 310 308 307 306 304 300 294 293 298 304 307 302 298 293 302 313 314 309 312 323 331 338 3 37 58 67 80 93 101 104 106 112 116 121 125 127 125 124 126 128 127 128 128 127 129 129 128 129 130 132 124 119 115 119 122
297 299 298 294 294 295 293 296 297 292 289 286 281 281 285 288 290 286 280 285 300 306 303 306 306 303 306 313 312 309 308 309 307 308 310 310 305 301 305 308 316 316 305 309 311 313 320 327 324 325 335 346 351 7 26 44 55 65 74 79 88 97 104 107 112 117 124 125 127 128 126 123 121 122 126 129 130 129 131 132 132 130 134 126 111 118 118
298 295 295 297 297 298 297 293 291 293 289 285 285 286 286 286 288 291 297 305 307 307 306 304 313 322 320 317 312 309 309 308 309 312 317 318 308 307 304 306 324 315 325 327 324 325 328 331 331 349 349 18 37 56 65 59 62 65 75 74 83 86 95 98 101 101 100 104 109 114 115 121 123 123 126 132 134 136 132 127 128 127 114 103 114 132 134
302 302 301 302 299 298 297 297 295 292 293 292 290 290 295 296 296 295 300 303 304 304 309 320 332 327 319 315 313 313 313 313 315 315 320 321 329 329 325 312 324 322 336 338 337 339 340 338 2 23 39 51 64 69 66 62 64 71 77 80 85 88 88 90 96 101 104 107 108 110 116 121 122 129 132 134 135 129 114 124 120 121 125 128 134 132 124
300 299 297 297 298 297 297 295 293 293 294 294 296 297 296 296 300 305 309 310 311 321 328 331 329 326 325 323 323 322 321 322 329 331 327 327 327 342 339 328 327 336 348 345 347 347 345 360 16 54 62 77 84 83 78 79 77 79 81 85 86 88 93 93 93 96 101 105 111 115 118 119 124 128 133 131 121 110 97 86 102 102 113 123 130 125 116
298 296 297 293 293 295 293 291 294 295 294 292 293 293 297 302 305 308 310 312 322 332 330 329 318 321 328 333 329 324 317 326 339 340 340 339 342 343 343 343 342 340 353 6 355 355 5 19 50 61 73 76 76 74 74 74 82 89 92 92 90 91 90 95 96 97 99 99 103 108 114 119 127 122 113 117 121 110 124 116 108 123 132 130 126 116 117
297 296 295 296 295 291 287 289 289 290 288 287 289 295 300 301 309 311 315 323 334 328 327 326 325 324 330 334 331 327 323 332 349 344 345 334 341 325 337 356 354 4 9 8 359 6 25 41 50 55 62 63 63 63 66 71 77 83 90 91 93 94 95 96 97 101 102 108 113 116 119 119 106 83 71 80 115 105 110 123 127 119 122 122 130 130 133
298 299 296 293 291 290 292 291 288 286 282 289 300 306 314 316 315 319 324 326 323 319 319 325 326 329 338 339 341 341 342 336 336 353 355 348 346 349 354 360 4 9 14 14 8 17 25 39 55 64 69 71 71 65 64 68 71 79 81 88 89 96 95 99 99 100 99 103 103 106 106 107 99 85 111 109 106 115 128 132 132 130 125 125 123 123 128
303 301 298 297 295 294 294 293 293 292 300 303 302 307 311 317 319 321 322 320 322 322 325 327 331 337 340 344 345 348 347 339 340 347 358 355 352 351 355 3 9 13 9 11 15 25 37 46 49 56 64 71 69 69 70 73 73 76 78 82 88 92 93 96 92 97 100 99 92 85 75 84 92 86 103 107 100 126 130 129 132 129 125 131 136 139 139
302 298 296 294 293 297 301 299 302 307 306 307 310 312 319 318 322 318 321 327 329 333 335 336 340 343 344 345 354 350 351 351 8 334 334 350 347 355 355 2 7 11 12 16 24 29 32 41 46 50 52 57 60 61 66 73 77 75 77 80 79 74 57 50 55 64 67 73 72 74 77 85 96 85 81 106 110 115 121 123 127 132 135 128 125 129 135
306 305 304 308 313 312 316 320 316 313 313 311 320 321 321 328 330 335 335 329 338 340 340 346 351 352 351 351 352 352 351 355 357 1 360 0 2 7 10 11 12 18 23 27 24 24 21 27 35 37 44 55 59 61 64 66 69 70 78 78 82 75 69 86 85 86 94 86 68 100 99 86 99 109 113 110 110 114 117 115 117 102 95 114 131 141 145
319 313 306 300 285 302 316 317 315 317 316 325 314 320 332 338 338 339 338 345 341 345 345 348 1 4 359 359 356 356 358 0 6 12 10 10 9 12 12 10 13 19 22 26 27 22 25 26 35 38 45 52 56 55 60 59 56 55 58 75 72 79 75 68 70 67 82 88 78 88 110 103 108 116 107 121 123 124 123 124 124 134 137 141 138 140 124
315 301 287 323 328 324 317 322 329 336 333 330 322 326 332 346 345 346 348 358 354 345 351 352 360 5 5 1 1 1 1 10 12 14 17 14 13 12 14 22 28 24 25 28 28 27 30 32 42 45 50 53 58 64 62 60 61 60 51 40 52 47 35 56 61 66 76 76 86 93 104 90 89 118 118 114 116 118 118 119 119 122 128 124 88 106 113